Weather History for KFRG - March, 2013

Change the Weather History Date:

Monday, March 18, 2013

  Actual Average Record
Temperature  
Mean Temperature 30 °F -  
Max Temperature 36 °F 44 °F 75 °F (2011)
Min Temperature 26 °F 31 °F 23 °F (2014)
Degree Days  
Heating Degree Days 34    
Moisture  
Dew Point 23 °F    
Average Humidity 72    
Maximum Humidity 96    
Minimum Humidity 43    
Precipitation  
Precipitation 0.29 in - - ()
Sea Level Pressure  
Sea Level Pressure 30.22 in    
Wind  
Wind Speed 10 mph (East)    
Max Wind Speed 20 mph    
Max Gust Speed 29 mph    
Visibility 6 miles    
Events Fog , Rain , Snow    
Averages and records for this station are not official NWS values.
T = Trace of Precipitation, MM = Missing Value Source: NWS Daily Summary

Daily Weather History Graph

Daily Weather History Graph

Search for Another Location

Airport or City:

Trip Planner

Search our weather history database for the weather conditions in past years. The results will help you decide how hot, cold, wet, or windy it might be!

Date:

Astronomy

Mar. 18, 2013 Rise Set
Actual Time 6:59 AM EDT 7:03 PM EDT
Civil Twilight 6:32 AM EDT 7:31 PM EDT
Nautical Twilight 6:00 AM EDT 8:03 PM EDT
Astronomical Twilight 5:28 AM EDT 8:35 PM EDT
Moon 10:55 AM EDT (3/18) 1:02 AM EDT (3/18)
Length of Visible Light 12h 58m
Length of Day
12h 03m
Waxing Crescent, 40% of the Moon is Illuminated
Mar 18
Waxing Crescent
Mar 19
First Quarter
Mar 27
Full
Apr 3
Last Quarter
Apr 10
New

Hourly Weather History & Observations

Time (EDT) Temp. Windchill Dew Point Humidity Pressure Visibility Wind Dir Wind Speed Gust Speed Precip Events Conditions
12:53 AM 30.0 °F 25.2 °F 10.0 °F 43% 30.32 in 10.0 mi NNE 4.6 mph - N/A   Clear
1:53 AM 28.0 °F 20.0 °F 10.9 °F 49% 30.33 in 10.0 mi NE 8.1 mph - N/A   Clear
2:53 AM 27.0 °F 18.7 °F 10.0 °F 49% 30.34 in 10.0 mi NNE 8.1 mph - N/A   Clear
3:53 AM 27.0 °F 19.5 °F 10.0 °F 49% 30.36 in 10.0 mi NNE 6.9 mph - N/A   Clear
4:53 AM 26.1 °F 20.5 °F 10.9 °F 53% 30.38 in 10.0 mi NE 4.6 mph - N/A   Clear
5:53 AM 26.1 °F 20.5 °F 10.9 °F 53% 30.40 in 10.0 mi NNE 4.6 mph - N/A   Clear
6:53 AM 27.0 °F 20.5 °F 12.0 °F 53% 30.41 in 10.0 mi NE 5.8 mph - N/A   Clear
7:53 AM 28.0 °F 20.8 °F 10.9 °F 49% 30.42 in 10.0 mi ENE 6.9 mph - N/A   Clear
8:53 AM 30.0 °F 23.2 °F 12.0 °F 47% 30.41 in 10.0 mi ENE 6.9 mph - N/A   Clear
9:53 AM 32.0 °F 24.2 °F 12.0 °F 44% 30.41 in 10.0 mi East 9.2 mph - N/A   Clear
10:53 AM 35.1 °F 27.4 °F 15.1 °F 44% 30.40 in 10.0 mi East 10.4 mph - N/A   Clear
11:53 AM 35.1 °F 26.4 °F 17.1 °F 48% 30.38 in 10.0 mi ESE 12.7 mph - N/A   Clear
12:53 PM 34.0 °F 23.8 °F 18.0 °F 52% 30.37 in 10.0 mi East 16.1 mph 20.7 mph N/A   Partly Cloudy
1:53 PM 34.0 °F 25.5 °F 19.0 °F 54% 30.32 in 10.0 mi East 11.5 mph 21.9 mph N/A   Scattered Clouds
2:53 PM 34.0 °F 25.0 °F 19.9 °F 56% 30.30 in 10.0 mi ESE 12.7 mph - N/A   Overcast
3:53 PM 34.0 °F 22.7 °F 21.9 °F 61% 30.26 in 10.0 mi East 19.6 mph 26.5 mph N/A   Overcast
4:53 PM 34.0 °F 23.8 °F 23.0 °F 64% 30.24 in 10.0 mi East 16.1 mph 25.3 mph N/A   Overcast
5:18 PM 33.8 °F 23.5 °F 24.8 °F 70% 30.22 in 10.0 mi East 16.1 mph - N/A   Overcast
5:53 PM 34.0 °F 24.2 °F 25.0 °F 70% 30.22 in 3.0 mi East 15.0 mph 24.2 mph 0.00 in Snow Light Snow
6:22 PM 33.8 °F 24.3 °F 24.8 °F 70% 30.22 in 2.5 mi East 13.8 mph 28.8 mph 0.00 in Snow Light Snow
6:36 PM 33.8 °F 24.3 °F 26.6 °F 75% 30.23 in 1.2 mi East 13.8 mph 20.7 mph 0.00 in Snow Light Snow
6:53 PM 33.1 °F 22.2 °F 27.0 °F 78% 30.22 in 2.0 mi East 17.3 mph 25.3 mph 0.00 in Snow Light Snow
7:30 PM 33.8 °F 23.2 °F 28.4 °F 81% 30.17 in 1.8 mi East 17.3 mph - 0.01 in Snow Light Snow
7:37 PM 33.8 °F 24.3 °F 28.4 °F 81% 30.17 in 2.0 mi East 13.8 mph 23.0 mph 0.01 in Snow Light Snow
7:53 PM 33.1 °F 21.5 °F 28.0 °F 82% 30.15 in 2.5 mi East 19.6 mph 26.5 mph 0.01 in Snow Light Snow
8:11 PM 33.8 °F 22.8 °F 28.4 °F 81% 30.14 in 1.0 mi East 18.4 mph - 0.00 in Snow Light Snow
8:20 PM 33.8 °F 23.9 °F 30.2 °F 87% 30.14 in 0.8 mi East 15.0 mph 24.2 mph 0.00 in Snow Light Snow
8:34 PM 33.8 °F 24.8 °F 30.2 °F 87% 30.13 in 0.8 mi East 12.7 mph 27.6 mph 0.01 in Snow Light Snow
8:53 PM 32.0 °F 22.5 °F 30.9 °F 96% 30.13 in 0.5 mi East 12.7 mph 20.7 mph 0.03 in Fog , Snow Snow
9:06 PM 33.8 °F 25.3 °F 30.2 °F 87% 30.13 in 1.0 mi East 11.5 mph - 0.02 in Snow Light Snow
9:43 PM 33.8 °F 23.9 °F 30.2 °F 87% 30.10 in 2.5 mi East 15.0 mph 27.6 mph 0.08 in Snow Light Snow
9:50 PM 33.8 °F 23.9 °F 30.2 °F 87% 30.09 in 3.0 mi East 15.0 mph 24.2 mph 0.09 in Rain Rain
9:53 PM 33.1 °F 22.6 °F 30.9 °F 92% 30.09 in 3.0 mi East 16.1 mph 24.2 mph 0.09 in Rain Rain
10:01 PM 33.8 °F 23.5 °F 30.2 °F 87% 30.09 in 4.0 mi East 16.1 mph 27.6 mph 0.01 in Rain Light Freezing Rain
10:15 PM 33.8 °F 23.2 °F 30.2 °F 87% 30.08 in 4.0 mi East 17.3 mph 26.5 mph 0.02 in Rain Light Freezing Rain
10:45 PM 33.8 °F 24.8 °F 32.0 °F 93% 30.07 in 3.0 mi East 12.7 mph 21.9 mph 0.05 in Rain Light Freezing Rain
10:47 PM 33.8 °F 24.8 °F 32.0 °F 93% 30.07 in 2.5 mi East 12.7 mph 21.9 mph 0.05 in Rain Light Freezing Rain
10:53 PM 33.1 °F 23.9 °F 32.0 °F 96% 30.07 in 2.5 mi East 12.7 mph 20.7 mph 0.06 in Rain Light Freezing Rain
10:58 PM 33.8 °F 24.8 °F 32.0 °F 93% 30.07 in 3.0 mi East 12.7 mph 20.7 mph 0.01 in Rain Rain
11:03 PM 33.8 °F 24.8 °F 32.0 °F 93% 30.07 in 3.0 mi East 12.7 mph 19.6 mph 0.02 in Rain Light Freezing Rain
11:50 PM 33.8 °F 25.8 °F 32.0 °F 93% 30.04 in 5.0 mi East 10.4 mph - 0.10 in Rain Light Freezing Rain
11:53 PM 34.0 °F 26.0 °F 32.0 °F 92% 30.04 in 5.0 mi East 10.4 mph - 0.10 in Rain Light Freezing Rain